TimeCST,TemperatureF,Dew PointF,Humidity,Sea Level PressureIn,VisibilityMPH,Wind Direction,Wind SpeedMPH,Gust SpeedMPH,PrecipitationIn,Events,Conditions,WindDirDegrees,DateUTC
12:53 AM,70.0,61.0,73,30.19,10.0,North,6.9,-,N/A,,Overcast,360,2013-11-11 06:53:00
1:53 AM,69.1,61.0,75,30.18,10.0,North,8.1,-,N/A,,Overcast,360,2013-11-11 07:53:00
2:53 AM,69.1,60.1,73,30.17,10.0,North,8.1,-,N/A,,Overcast,360,2013-11-11 08:53:00
3:53 AM,69.1,59.0,70,30.16,10.0,North,8.1,-,N/A,,Overcast,10,2013-11-11 09:53:00
4:53 AM,68.0,59.0,73,30.15,10.0,NNE,6.9,-,N/A,,Overcast,20,2013-11-11 10:53:00
5:53 AM,68.0,59.0,73,30.16,10.0,North,5.8,-,N/A,,Overcast,360,2013-11-11 11:53:00
6:53 AM,68.0,60.1,76,30.18,10.0,North,6.9,-,N/A,,Overcast,360,2013-11-11 12:53:00
7:53 AM,68.0,60.1,76,30.20,10.0,North,5.8,-,N/A,,Overcast,360,2013-11-11 13:53:00
8:53 AM,70.0,61.0,73,30.21,10.0,North,6.9,-,N/A,,Overcast,10,2013-11-11 14:53:00
9:53 AM,72.0,62.1,71,30.22,10.0,NNE,8.1,-,N/A,,Overcast,20,2013-11-11 15:53:00
10:53 AM,77.0,64.0,64,30.21,10.0,NNE,8.1,-,N/A,,Overcast,30,2013-11-11 16:53:00
11:53 AM,78.1,64.9,64,30.17,10.0,NNE,6.9,-,N/A,,Overcast,20,2013-11-11 17:53:00
12:53 PM,81.0,64.9,58,30.15,10.0,ENE,4.6,-,N/A,,Mostly Cloudy,70,2013-11-11 18:53:00
1:53 PM,80.1,64.9,60,30.12,10.0,NNE,6.9,-,N/A,,Overcast,20,2013-11-11 19:53:00
2:53 PM,80.1,64.0,58,30.10,10.0,NE,8.1,-,N/A,,Overcast,50,2013-11-11 20:53:00
3:53 PM,79.0,64.9,62,30.10,10.0,NE,8.1,-,N/A,,Overcast,50,2013-11-11 21:53:00
4:53 PM,75.9,66.0,71,30.12,10.0,ENE,12.7,-,N/A,,Overcast,70,2013-11-11 22:53:00
5:53 PM,75.0,68.0,79,30.12,10.0,ENE,8.1,-,N/A,,Overcast,70,2013-11-11 23:53:00
6:53 PM,75.0,66.9,76,30.14,10.0,ENE,13.8,-,N/A,,Overcast,70,2013-11-12 00:53:00
7:53 PM,73.9,66.0,76,30.16,10.0,ENE,11.5,-,N/A,,Overcast,60,2013-11-12 01:53:00
8:53 PM,73.0,66.0,79,30.17,10.0,NE,10.4,18.4,N/A,,Overcast,50,2013-11-12 02:53:00
9:53 PM,73.0,66.0,79,30.19,10.0,NE,6.9,-,N/A,,Overcast,50,2013-11-12 03:53:00
10:53 PM,73.0,64.9,76,30.19,10.0,NE,6.9,-,N/A,,Overcast,50,2013-11-12 04:53:00
11:53 PM,72.0,64.9,78,30.18,10.0,ENE,5.8,-,N/A,,Overcast,60,2013-11-12 05:53:00